Погода в Ниагара-Фоллз

США     43°05′43″N   79°03′20″W
темп.,
°C
ветер,
м/с
пор.,
м/с
влажн.,
%
обл.,
%
осадки,
мм/ч
давл.,
гПа
погр.,
м
26 октября, вт
вт2623:00+9ссв61193100 0.1 1007590
02:00+7ссв5992100 0.6 1007562
05:00+7с5891100 1.0 1007636
08:00+6ссз5893100 2.9 1008687
11:00+7ссз5892100 1.7 1008884
14:00+7с51093100 4.9 1007850
17:00+7с5993100 1.6 1008787
20:00+8с51095100 2.0 1010724
27 октября, ср
ср2723:00+9с4996100 1.0 1011613
02:00+9ссв4993100 1.3 1012512
05:00+9с3794100 0.1 1014678
08:00+9св3792100 0.1 1014545
11:00+11св357892 0.0 1015686
14:00+14ссв34636 0.0 1014801
17:00+13ссв34600 0.0 1014658
20:00+10всв26710 0.0 1014314
28 октября, чт
чт2823:00+9всв39680 0.0 1014428
02:00+8в25718 0.0 1014205
05:00+7всв387937 0.0 1013286
08:00+6всв3108465 0.0 1012349
11:00+11в4757100 0.0 1011418
14:00+15в5844100 0.0 1008835
17:00+15в51055100 0.0 1007787
20:00+12в51172100 0.0 1008605
29 октября, пт
пт2923:00+12вюв41174100 0.0 1008651
02:00+11вюв4117774 0.0 1006525
05:00+11в5127797 0.0 1006711
08:00+11в61476100 0.1 1004779
11:00+9в61579100 1.8 1004692
14:00+9всв61586100 4.6 1003988
17:00+9всв81689100 5.9 10021092
20:00+9всв71390100 5.9 1003901
30 октября, сб
сб3023:00+8в51192100 0.0 1003580
02:00+8всв41092100 0.0 1002380
05:00+9всв489391 0.0 1002403
08:00+9всв3792100 0.0 1002316
11:00+9всв2495100 2.9 1003198
14:00+11всв1187100 4.1 1002121
17:00+12св2483100 0.3 1003284
20:00+11ссв238898 0.3 1005110